This demonstration page uses our WeatherBlox Daily Observations layout. Learn more.

Left ArrowRight Arrow

44.8408, -93.29828

Hourly Observations for July 22, 2017

Temp ( °F °C ) Dew Point ( °F °C ) Humidity (%) Winds ( mph kmh ) Pressure ( in mb ) Visibility ( mi km ) Precip ( " mm )
12:06 am 00:06 Cloudy 75 23.9 65 18.3 71 71 NE 10 17 29.83 1010 10 16 0.00 0.00
12:53 am 00:53 Partly Cloudy 72 22.2 64 17.8 76 76 NE 7 11 29.80 1009 10 16 0.00 0.00
1:53 am 01:53 Partly Cloudy 71 21.7 65 18.3 81 81 SE 7 11 29.77 1008 10 16 0.00 0.00
2:53 am 02:53 Mostly Cloudy 72 22.2 65 18.3 79 79 S 10 17 29.75 1007 10 16 0.00 0.00
3:53 am 03:53 Mostly Cloudy 72 22.2 65 18.3 79 79 SSW 3 6 29.74 1007 10 16 0.00 0.00
4:53 am 04:53 Mostly Cloudy 72 22.2 65 18.3 79 79 W 3 6 29.77 1008 10 16 0.00 0.00
5:28 am 05:28 Mostly Cloudy 72 22.2 65 18.3 79 79 Calm 29.77 1008 10 16 0.00 0.00
5:44 am 05:44 Mostly Cloudy 71 21.7 65 18.3 81 81 SSE 6 9 29.77 1008 10 16 0.00 0.00
5:53 am 05:53 Mostly Cloudy 71 21.7 65 18.3 81 81 SE 6 9 29.78 1009 10 16 0.00 0.00
6:53 am 06:53 Cloudy 71 21.7 66 18.9 84 84 N 6 9 29.80 1009 10 16 0.00 0.00
7:53 am 07:53 Mostly Cloudy 72 22.2 66 18.9 82 82 N 9 15 29.84 1010 10 16 0.00 0.00
8:53 am 08:53 Partly Cloudy 74 23.3 64 17.8 71 71 N 14 22 29.85 1011 10 16 0.00 0.00
9:53 am 09:53 Mostly Sunny 79 26.1 66 18.9 65 65 Calm 29.83 1010 10 16 0.00 0.00
10:53 am 10:53 Mostly Sunny 81 27.2 68 20 65 65 S 7 11 29.80 1009 10 16 0.00 0.00
11:53 am 11:53 Mostly Sunny 84 28.9 68 20 59 59 Calm 29.80 1009 10 16 0.00 0.00
12:53 pm 12:53 Mostly Sunny 86 30 68 20 55 55 W 5 7 29.79 1009 10 16 0.00 0.00
1:53 pm 13:53 Partly Cloudy 87 30.6 67 19.4 51 51 NW 12 19 29.79 1009 10 16 0.00 0.00
2:53 pm 14:53 Mostly Cloudy 88 31.1 69 20.6 54 54 WSW 9 15 29.79 1009 10 16 0.00 0.00
3:53 pm 15:53 Partly Cloudy 89 31.7 67 19.4 48 48 NW 12 19 29.78 1009 10 16 0.00 0.00
4:53 pm 16:53 Mostly Cloudy 90 32.2 63 17.2 41 41 NNW 13 20 29.78 1009 10 16 0.00 0.00
5:53 pm 17:53 Mostly Cloudy 89 31.7 63 17.2 42 42 NW 13 20 29.78 1009 10 16 0.00 0.00
6:53 pm 18:53 Partly Cloudy 87 30.6 62 16.7 43 43 NW 10 17 29.79 1009 10 16 0.00 0.00
7:53 pm 19:53 Partly Cloudy 85 29.4 63 17.2 48 48 NW 9 15 29.80 1009 10 16 0.00 0.00
8:53 pm 20:53 Partly Cloudy 83 28.3 60 15.6 46 46 NNW 15 24 29.81 1009 10 16 0.00 0.00
9:53 pm 21:53 Mostly Clear 80 26.7 60 15.6 51 51 NNW 6 9 29.82 1010 10 16 0.00 0.00
10:53 pm 22:53 Clear 79 26.1 60 15.6 52 52 WNW 5 7 29.82 1010 10 16 0.00 0.00
11:53 pm 23:53 Mostly Clear 75 23.9 60 15.6 60 60 W 3 6 29.82 1010 10 16 0.00 0.00

Powered by AerisWeather